Effective Sunday, March 17, 2024, the National Weather Service National Data Buoy Center will discontinue its Dial-A-Buoy Interactive Voice Response system. For more information, see Service Change Notice 24-06 (PDF).

Station SPXA2 - Ship Island, AK Image indicating link to RSS feed of recent meteorological observations for station SPXA2


Conditions at SPXA2 as of
(11:03 pm AKST on 02/28/2024)
0803 GMT on 02/29/2024:
     

Click on the graph icon in the table below to see a time series plot of the last five days of that observation.

5-day plot - Wind Direction Wind Direction (WDIR): NE ( 50 deg true )
5-day plot - Wind Speed Wind Speed (WSPD): 6.0 kts
5-day plot - Wind Gust Wind Gust (GST): 13.0 kts
5-day plot - Atmospheric Pressure Atmospheric Pressure (PRES):29.11 in
5-day plot - Air Temperature Air Temperature (ATMP): 34.9 °F
5-day plot - Wind Chill Wind Chill (CHILL): 28.9 °F
5-day plot - Wind Speed at 10 Meters Wind Speed at 10 meters (WSPD10M): 7.8 kts
5-day plot - Wind Speed at 20 Meters Wind Speed at 20 meters (WSPD20M): 7.8 kts
5-day plot -  Wind Speed, Wind Gust and Atmospheric Pressure Combined plot of Wind Speed, Gust, and Air Pressure
Previous observations
TIME
(AKST)
5-day plot - Wind Direction
WDIR
 
5-day plot - Wind Speed
WSPD
kts
5-day plot - Wind Gust
GST
kts
5-day plot - Wave Height
WVHT
ft
5-day plot - Dominant Wave Period
DPD
sec
5-day plot - Average Wave Period
APD
sec
5-day plot - Mean Wave Direction
MWD
 
5-day plot - Atmospheric Pressure
PRES
in
5-day plot - Pressure Tendency
PTDY
in
5-day plot - Air Temperature
ATMP
°F
5-day plot - Water Temperature
WTMP
°F
5-day plot - Dew Point
DEWP
°F
5-day plot - Salinity
SAL
psu
5-day plot - Visibility
VIS
nmi
5-day plot - Tide (above MLLW)
TIDE
ft
2024-02-28 10:53 pm NE 5.1 13.0----29.11- 34.9-----
2024-02-28 10:43 pmNNE 2.9 8.0----29.11- 34.5-----
2024-02-28 10:33 pm NE 1.9 7.0----29.11- 34.3-----
2024-02-28 10:23 pmNNE 2.9 12.0----29.11- 34.0-----
2024-02-28 10:13 pm NE 2.9 9.9----29.12- 34.2-----
2024-02-28 10:03 pm N 2.9 8.9----29.12- 34.0-----
2024-02-28 09:53 pmNNW 4.1 7.0----29.12- 33.8-----
2024-02-28 09:43 pmNNW 2.9 6.0----29.12- 33.6-----
2024-02-28 09:33 pm N 1.9 6.0----29.13- 33.8-----
2024-02-28 09:23 pm SE 5.1 11.1----29.12- 34.2-----
2024-02-28 09:13 pmESE 5.1 11.1----29.12- 34.9-----
2024-02-28 09:03 pmESE 6.0 12.0----29.12- 35.1-----
2024-02-28 08:53 pmESE 8.9 14.0----29.12- 35.4-----
2024-02-28 08:43 pm SE 8.0 17.1----29.12- 35.6-----
2024-02-28 08:33 pm E 2.9 9.9----29.12- 35.8-----
2024-02-28 08:23 pm E 2.9 8.9----29.12- 35.6-----
2024-02-28 08:13 pmESE 2.9 8.0----29.12- 35.8-----
2024-02-28 08:03 pm E 2.9 6.0----29.12- 35.6-----
2024-02-28 07:53 pmESE 5.1 9.9----29.12- 35.6-----
2024-02-28 07:43 pm E 2.9 9.9----29.12- 35.8-----
2024-02-28 07:33 pm E 2.9 9.9----29.12- 35.8-----
2024-02-28 07:23 pm E 4.1 8.0----29.12- 35.8-----
2024-02-28 07:13 pmENE 1.9 6.0----29.12- 35.6-----
2024-02-28 07:03 pm E 2.9 9.9----29.12- 36.0-----
2024-02-28 06:53 pmESE 4.1 8.9----29.12- 36.0-----
2024-02-28 06:43 pm E 2.9 7.0----29.12- 36.1-----
2024-02-28 06:33 pm E 4.1 8.9----29.12- 36.1-----
2024-02-28 06:23 pmESE 4.1 9.9----29.12- 36.3-----
2024-02-28 06:13 pmESE 5.1 9.9----29.12- 36.5-----
2024-02-28 06:03 pmESE 2.9 7.0----29.12- 36.3-----
2024-02-28 05:53 pm E 4.1 8.9----29.12- 36.3-----
2024-02-28 05:43 pmESE 4.1 8.9----29.12- 36.5-----
2024-02-28 05:33 pmESE 4.1 8.0----29.12- 36.5-----
2024-02-28 05:23 pm E 4.1 8.0----29.12- 36.3-----
2024-02-28 05:13 pmESE 5.1 8.9----29.12- 36.3-----
2024-02-28 05:03 pmESE 6.0 14.0----29.12- 36.5-----
2024-02-28 04:53 pmESE 6.0 12.0----29.13- 36.3-----
2024-02-28 04:43 pm E 4.1 9.9----29.13- 36.3-----
2024-02-28 04:33 pmESE 6.0 11.1----29.12- 36.1-----
2024-02-28 04:23 pmESE 2.9 8.9----29.13- 35.6-----
2024-02-28 04:13 pm N 1.0 4.1----29.13- 35.4-----
2024-02-28 04:03 pm W 1.9 6.0----29.13- 35.1-----
2024-02-28 03:53 pmNNE 1.9 6.0----29.13- 34.9-----
2024-02-28 03:43 pm E 4.1 8.9----29.13- 35.1-----
2024-02-28 03:33 pm SE 6.0 8.9----29.13- 35.1-----
2024-02-28 03:23 pmESE 8.0 14.0----29.13- 35.2-----
2024-02-28 03:13 pm SE 9.9 15.0----29.13- 35.8-----
2024-02-28 02:53 pm SE 8.9 15.0----29.13- 36.0-----
2024-02-28 02:43 pmSSE 9.9 13.0----29.13- 35.4-----
2024-02-28 02:33 pm SE 8.0 14.0----29.13- 35.4-----
2024-02-28 02:23 pmESE 8.0 12.0----29.14- 35.2-----
2024-02-28 02:13 pm SE 8.9 12.0----29.14- 35.2-----
2024-02-28 02:03 pmESE 9.9 15.0----29.14- 35.2-----
2024-02-28 01:53 pmESE 11.1 15.0----29.14- 35.8-----
2024-02-28 01:43 pmESE 13.0 18.1----29.14- 35.8-----
2024-02-28 01:33 pm SE 11.1 19.0----29.14- 35.8-----
2024-02-28 01:13 pm SE 13.0 18.1----29.15- 34.9-----
2024-02-28 01:03 pmESE 11.1 15.0----29.15- 34.9-----
2024-02-28 12:53 pmESE 8.9 17.1----29.15- 35.1-----
2024-02-28 12:43 pmESE 9.9 17.1----29.15- 36.0-----
2024-02-28 12:33 pmESE 8.9 15.9----29.15- 36.1-----
2024-02-28 12:23 pmESE 12.0 19.0----29.15- 36.1-----
2024-02-28 12:13 pmESE 14.0 20.0----29.15- 35.8-----
2024-02-28 12:03 pm SE 12.0 19.0----29.16- 36.1-----
2024-02-28 11:53 amESE 11.1 19.0----29.16- 36.1-----
2024-02-28 11:43 amESE 9.9 18.1----29.16- 36.3-----
2024-02-28 11:33 amESE 9.9 17.1----29.16- 35.8-----
2024-02-28 11:23 amESE 8.9 19.0----29.17- 35.4-----
2024-02-28 11:13 amESE 9.9 17.1----29.17- 34.9-----
2024-02-28 11:03 amESE 6.0 14.0----29.17- 33.8-----
2024-02-28 10:53 am E 5.1 14.0----29.17- 33.3-----
2024-02-28 10:43 am SE 7.0 12.0----29.18- 33.1-----
2024-02-28 10:33 amESE 9.9 15.9----29.18- 33.3-----
2024-02-28 10:23 amESE 9.9 15.9----29.17- 33.6-----
2024-02-28 10:13 amESE 15.0 22.0----29.17- 34.0-----
2024-02-28 10:03 amESE 14.0 22.0----29.17- 33.8-----
2024-02-28 09:53 amESE 11.1 21.0----29.18- 33.6-----
2024-02-28 09:43 amESE 11.1 19.0----29.18- 33.3-----
2024-02-28 09:33 am SE 9.9 15.0----29.18- 33.3-----
2024-02-28 09:23 am SE 15.0 22.0----29.18- 33.4-----
2024-02-28 09:13 amESE 15.0 21.0----29.17- 34.2-----
2024-02-28 09:03 amESE 15.0 25.1----29.17- 34.0-----
2024-02-28 08:53 amESE 15.0 26.0----29.18- 33.4-----
2024-02-28 08:43 amESE 15.9 25.1----29.18- 33.8-----
2024-02-28 08:33 am SE 15.0 20.0----29.18- 34.0-----
2024-02-28 08:23 am SE 15.0 19.0----29.18- 34.2-----
2024-02-28 08:13 amESE 18.1 26.0----29.18- 34.2-----
2024-02-28 08:03 am SE 20.0 26.0----29.17- 34.9-----
2024-02-28 07:53 am SE 17.1 25.1----29.17- 34.7-----
2024-02-28 07:43 amESE 17.1 29.9----29.17- 34.3-----
2024-02-28 07:33 amESE 15.0 20.0----29.17- 34.5-----
2024-02-28 07:23 amESE 15.9 22.9----29.17- 35.1-----
2024-02-28 07:13 amESE 15.9 22.9----29.17- 35.2-----
2024-02-28 07:03 amESE 18.1 26.0----29.17- 34.9-----
2024-02-28 06:53 amESE 17.1 24.1----29.17- 34.9-----
2024-02-28 06:43 amESE 17.1 28.0----29.17- 35.2-----
2024-02-28 06:33 amESE 19.0 27.0----29.17- 35.6-----
2024-02-28 06:23 amESE 20.0 29.9----29.17- 35.8-----
2024-02-28 06:13 amESE 17.1 25.1----29.17- 35.2-----
2024-02-28 06:03 amESE 17.1 24.1----29.17- 34.9-----
2024-02-28 05:53 amESE 19.0 27.0----29.17- 35.1-----
2024-02-28 05:43 amESE 17.1 22.9----29.17- 35.4-----
2024-02-28 05:33 amESE 18.1 22.9----29.17- 35.6-----
2024-02-28 05:23 amESE 17.1 25.1----29.17- 35.8-----
2024-02-28 05:13 amESE 15.9 26.0----29.17- 36.0-----
2024-02-28 05:03 amESE 17.1 26.0----29.18- 36.0-----
2024-02-28 04:53 amESE 17.1 24.1----29.18- 36.0-----
2024-02-28 04:43 amESE 15.0 22.9----29.18- 35.8-----
2024-02-28 04:33 amESE 15.0 22.0----29.18- 35.4-----
2024-02-28 04:23 amESE 15.9 24.1----29.18- 35.1-----
2024-02-28 04:13 amESE 19.0 29.9----29.18- 35.1-----
2024-02-28 04:03 amESE 17.1 24.1----29.18- 35.4-----
2024-02-28 03:53 amESE 18.1 25.1----29.18- 35.4-----
2024-02-28 03:43 amESE 19.0 26.0----29.18- 35.4-----
2024-02-28 03:33 amESE 18.1 28.0----29.18- 35.4-----
2024-02-28 03:23 amESE 18.1 27.0----29.18- 35.6-----
2024-02-28 03:13 am SE 17.1 26.0----29.18- 35.8-----
2024-02-28 03:03 am S 17.1 28.0----29.19- 36.1-----
2024-02-28 02:53 am SE 22.0 27.0----29.18- 37.6-----
2024-02-28 02:43 amESE 13.0 18.1----29.19- 35.8-----
2024-02-28 02:33 amESE 12.0 17.1----29.20- 35.2-----
2024-02-28 02:23 am SE 18.1 22.0----29.20- 35.1-----
2024-02-28 02:13 am SE 18.1 26.0----29.20- 35.1-----
2024-02-28 02:03 amESE 15.9 24.1----29.20- 35.4-----
2024-02-28 01:53 amESE 15.9 22.0----29.20- 35.6-----
2024-02-28 01:43 amESE 18.1 25.1----29.20- 36.0-----
2024-02-28 01:33 amESE 18.1 25.1----29.20- 35.6-----
2024-02-28 01:23 amESE 17.1 22.9----29.20- 35.6-----
2024-02-28 01:13 amESE 17.1 24.1----29.19- 35.8-----
2024-02-28 01:03 amESE 15.9 22.0----29.19- 36.0-----
2024-02-28 12:53 amESE 17.1 25.1----29.19- 35.8-----
2024-02-28 12:33 amESE 12.0 18.1----29.20- 36.1-----
2024-02-28 12:23 amESE 13.0 19.0----29.20- 35.8-----
2024-02-28 12:14 amESE 14.0 19.0----29.20- 35.6-----
2024-02-28 12:03 amESE 14.0 20.0----29.20- 35.4-----
2024-02-27 11:53 pmESE 14.0 21.0----29.19- 35.4-----
2024-02-27 11:43 pmESE 17.1 22.9----29.19- 35.2-----
2024-02-27 11:33 pmESE 18.1 28.0----29.19- 35.1-----
2024-02-27 11:23 pmESE 18.1 24.1----29.20- 34.3-----
2024-02-27 11:13 pm SE 15.0 27.0----29.20- 34.0-----
2024-02-27 11:03 pm SE 9.9 15.9----29.21- 34.2-----
2024-02-27 10:53 pmESE 11.1 18.1----29.20- 34.5-----